Aitkin, MN

11:03 PM CDT on September 20, 2017 (GMT -0500)
Aitkin Municipal / Steve Kurtz Field

Weather History for KAIT - January, 2013

Change the Weather History Date:

Thursday, January 24, 2013

  Actual Average Record
Temperature  
Mean Temperature -5 °F -  
Max Temperature 6 °F 20 °F 42 °F (1973)
Min Temperature -16 °F -1 °F -32 °F (1982)
Degree Days  
Heating Degree Days 70    
Moisture  
Dew Point -17 °F    
Average Humidity 56    
Maximum Humidity 70    
Minimum Humidity 47    
Precipitation  
Precipitation 0.00 in - - ()
Sea Level Pressure  
Sea Level Pressure 30.41 in    
Wind  
Wind Speed 4 mph (SE)    
Max Wind Speed 15 mph    
Max Gust Speed 18 mph    
Visibility 10 miles    
Events Snow    
Averages and records for this station are not official NWS values.
T = Trace of Precipitation, MM = Missing Value Source: NWS Daily Summary

Daily Weather History Graph

Daily Weather History Graph

Search for Another Location

Airport or City:

Trip Planner

Search our weather history database for the weather conditions in past years. The results will help you decide how hot, cold, wet, or windy it might be!

Date:

Astronomy

Jan. 24, 2013 Rise Set
Actual Time 7:47 AM CST 5:07 PM CST
Civil Twilight 7:14 AM CST 5:40 PM CST
Nautical Twilight 6:37 AM CST 6:17 PM CST
Astronomical Twilight 6:01 AM CST 6:52 PM CST
Moon 3:08 PM CST (1/24) 5:47 AM CST (1/24)
Length of Visible Light 10h 26m
Length of Day
9h 20m
Waxing Gibbous, 94% of the Moon is Illuminated
Jan 24
Waxing Gibbous
Jan 26
Full
Feb 3
Last Quarter
Feb 10
New
Feb 17
First Quarter

Hourly Weather History & Observations

Time (CST) Temp. Windchill Dew Point Humidity Pressure Visibility Wind Dir Wind Speed Gust Speed Precip Events Conditions
12:12 AM -14.8 °F -24.8 °F -25.6 °F 58% 30.57 in 10.0 mi North 3.5 mph - N/A   Clear
12:32 AM -14.8 °F -24.8 °F -25.6 °F 58% 30.57 in 10.0 mi North 3.5 mph - N/A   Clear
12:53 AM -14.8 °F - -25.6 °F 58% 30.57 in 10.0 mi Calm Calm - N/A   Clear
1:12 AM -14.8 °F - -25.6 °F 58% 30.56 in 10.0 mi Calm Calm - N/A   Clear
1:32 AM -14.8 °F - -25.6 °F 58% 30.57 in 10.0 mi Calm Calm - N/A   Clear
1:53 AM -16.6 °F - -25.6 °F 64% 30.57 in 10.0 mi Calm Calm - N/A   Clear
2:12 AM -16.6 °F - -25.6 °F 64% 30.57 in 10.0 mi Calm Calm - N/A   Clear
2:33 AM -14.8 °F - -23.8 °F 64% 30.57 in 10.0 mi Calm Calm - N/A   Clear
2:52 AM -16.6 °F - -25.6 °F 64% 30.59 in 10.0 mi Calm Calm - N/A   Clear
3:12 AM -16.6 °F - -23.8 °F 70% 30.60 in 10.0 mi Calm Calm - N/A   Clear
3:33 AM -14.8 °F - -23.8 °F 64% 30.59 in 10.0 mi Calm Calm - N/A   Clear
3:52 AM -14.8 °F - -23.8 °F 64% 30.59 in 10.0 mi Calm Calm - N/A   Clear
4:12 AM -14.8 °F - -23.8 °F 64% 30.59 in 10.0 mi Calm Calm - N/A   Clear
4:33 AM -14.8 °F - -23.8 °F 64% 30.58 in 10.0 mi Calm Calm - N/A   Clear
4:52 AM -14.8 °F - -23.8 °F 64% 30.58 in 10.0 mi Calm Calm - N/A   Clear
5:12 AM -14.8 °F - -23.8 °F 64% 30.57 in 10.0 mi Calm Calm - N/A   Clear
5:33 AM -14.8 °F - -23.8 °F 64% 30.58 in 10.0 mi Calm Calm - N/A   Clear
5:52 AM -14.8 °F - -23.8 °F 64% 30.58 in 10.0 mi Calm Calm - N/A   Clear
6:12 AM -13.0 °F - -23.8 °F 59% 30.58 in 10.0 mi Calm Calm - N/A   Clear
6:33 AM -13.0 °F - -23.8 °F 59% 30.59 in 10.0 mi Calm Calm - N/A   Clear
6:52 AM -13.0 °F - -22.0 °F 64% 30.59 in 10.0 mi Calm Calm - N/A   Clear
7:12 AM -11.2 °F - -22.0 °F 59% 30.59 in 10.0 mi Calm Calm - N/A   Clear
7:33 AM -11.2 °F - -22.0 °F 59% 30.59 in 10.0 mi Calm Calm - N/A   Clear
7:52 AM -11.2 °F - -22.0 °F 59% 30.58 in 10.0 mi Calm Calm - N/A   Clear
8:12 AM -11.2 °F - -20.2 °F 64% 30.57 in 10.0 mi Calm Calm - N/A   Clear
8:33 AM -11.2 °F - -22.0 °F 59% 30.56 in 10.0 mi Calm Calm - N/A   Clear
8:52 AM -11.2 °F - -20.2 °F 64% 30.55 in 10.0 mi Calm Calm - N/A   Clear
9:12 AM -9.4 °F -20.9 °F -22.0 °F 54% 30.53 in 10.0 mi East 4.6 mph - N/A   Clear
9:33 AM -9.4 °F -18.6 °F -22.0 °F 54% 30.53 in 10.0 mi East 3.5 mph - N/A   Clear
9:52 AM -9.4 °F -22.7 °F -22.0 °F 54% 30.52 in 10.0 mi SE 5.8 mph - N/A   Clear
10:12 AM -7.6 °F - -20.2 °F 54% 30.52 in 10.0 mi Calm Calm - N/A   Clear
10:33 AM -7.6 °F -20.6 °F -20.2 °F 54% 30.53 in 10.0 mi South 5.8 mph - N/A   Clear
10:52 AM -5.8 °F -18.4 °F -20.2 °F 50% 30.54 in 10.0 mi South 5.8 mph - N/A   Clear
11:12 AM -5.8 °F -18.4 °F -20.2 °F 50% 30.52 in 10.0 mi SSE 5.8 mph - N/A   Clear
11:33 AM -4.0 °F -16.3 °F -18.4 °F 50% 30.51 in 10.0 mi SE 5.8 mph - N/A   Clear
11:52 AM -4.0 °F -21.2 °F -18.4 °F 50% 30.50 in 10.0 mi South 10.4 mph - N/A   Clear
12:12 PM -4.0 °F -19.0 °F -18.4 °F 50% 30.49 in 10.0 mi South 8.1 mph - N/A   Clear
12:32 PM -2.2 °F -18.9 °F -16.6 °F 50% 30.47 in 10.0 mi SE 10.4 mph - N/A   Clear
12:52 PM -2.2 °F -18.9 °F -16.6 °F 50% 30.45 in 10.0 mi SSE 10.4 mph - N/A   Clear
1:13 PM -2.2 °F -16.8 °F -16.6 °F 50% 30.44 in 10.0 mi SE 8.1 mph - N/A   Mostly Cloudy
1:33 PM -2.2 °F -16.8 °F -16.6 °F 50% 30.43 in 10.0 mi SSE 8.1 mph - N/A   Overcast
1:52 PM -2.2 °F -15.6 °F -14.8 °F 55% 30.42 in 10.0 mi SSE 6.9 mph - N/A   Scattered Clouds
2:13 PM -0.4 °F -14.7 °F -14.8 °F 51% 30.40 in 10.0 mi SE 8.1 mph - N/A   Clear
2:33 PM -0.4 °F -14.7 °F -14.8 °F 51% 30.40 in 10.0 mi SSE 8.1 mph - N/A   Clear
2:52 PM -0.4 °F -16.7 °F -14.8 °F 51% 30.38 in 10.0 mi SSE 10.4 mph - N/A   Clear
3:13 PM 1.4 °F -13.5 °F -14.8 °F 47% 30.37 in 10.0 mi SSE 9.2 mph - N/A   Scattered Clouds
3:33 PM 1.4 °F -11.3 °F -13.0 °F 51% 30.36 in 10.0 mi SSE 6.9 mph - N/A   Scattered Clouds
3:52 PM 1.4 °F -14.5 °F -13.0 °F 51% 30.34 in 10.0 mi SSE 10.4 mph - N/A   Scattered Clouds
4:13 PM 1.4 °F -13.5 °F -13.0 °F 51% 30.32 in 10.0 mi SSE 9.2 mph - N/A   Scattered Clouds
4:33 PM 1.4 °F -9.9 °F -11.2 °F 56% 30.29 in 10.0 mi SE 5.8 mph - N/A   Scattered Clouds
4:52 PM 3.2 °F -11.3 °F -11.2 °F 51% 30.30 in 10.0 mi SE 9.2 mph - N/A   Scattered Clouds
5:13 PM 1.4 °F -13.5 °F -11.2 °F 56% 30.27 in 10.0 mi SE 9.2 mph - N/A   Mostly Cloudy
5:33 PM 3.2 °F -10.3 °F -11.2 °F 51% 30.26 in 10.0 mi SE 8.1 mph - N/A   Overcast
5:52 PM 3.2 °F -9.1 °F -11.2 °F 51% 30.26 in 10.0 mi SE 6.9 mph - N/A   Mostly Cloudy
6:13 PM 3.2 °F -9.1 °F -11.2 °F 51% 30.26 in 10.0 mi SSE 6.9 mph - N/A   Mostly Cloudy
6:32 PM 3.2 °F -9.1 °F -11.2 °F 51% 30.25 in 10.0 mi SE 6.9 mph - N/A   Overcast
6:52 PM 3.2 °F -12.2 °F -11.2 °F 51% 30.23 in 10.0 mi SE 10.4 mph - N/A   Overcast
7:13 PM 3.2 °F -9.1 °F -9.4 °F 56% 30.22 in 10.0 mi SE 6.9 mph - N/A   Overcast
7:32 PM 3.2 °F -7.8 °F -9.4 °F 56% 30.20 in 10.0 mi SE 5.8 mph - N/A   Overcast
7:52 PM 3.2 °F -11.3 °F -9.4 °F 56% 30.16 in 10.0 mi SE 9.2 mph - N/A   Overcast
8:13 PM 3.2 °F -11.3 °F -9.4 °F 56% 30.15 in 10.0 mi SE 9.2 mph 16.1 mph N/A Snow Light Snow
8:32 PM 5.0 °F -9.1 °F -9.4 °F 52% 30.15 in 10.0 mi SE 9.2 mph - N/A   Overcast
8:52 PM 5.0 °F -8.1 °F -9.4 °F 52% 30.16 in 10.0 mi SSE 8.1 mph - N/A   Overcast
9:13 PM 5.0 °F -8.1 °F -7.6 °F 56% 30.15 in 10.0 mi SSE 8.1 mph - N/A   Overcast
9:32 PM 6.8 °F -6.9 °F -7.6 °F 52% 30.14 in 10.0 mi SSE 9.2 mph - N/A   Overcast
9:52 PM 6.8 °F -6.9 °F -7.6 °F 52% 30.13 in 10.0 mi SSE 9.2 mph - N/A   Overcast
10:13 PM 6.8 °F -10.0 °F -7.6 °F 52% 30.12 in 10.0 mi SSE 13.8 mph - N/A   Overcast
10:32 PM 6.8 °F -10.0 °F -7.6 °F 52% 30.10 in 10.0 mi SSE 13.8 mph - N/A   Overcast
10:52 PM 6.8 °F -10.7 °F -5.8 °F 56% 30.10 in 10.0 mi SSE 15.0 mph - N/A   Overcast
11:13 PM 6.8 °F -9.3 °F -5.8 °F 56% 30.09 in 10.0 mi South 12.7 mph 18.4 mph N/A   Overcast
11:32 PM 6.8 °F -8.6 °F -5.8 °F 56% 30.07 in 10.0 mi SSE 11.5 mph 17.3 mph N/A   Overcast
11:52 PM 6.8 °F -9.3 °F -4.0 °F 61% 30.06 in 10.0 mi South 12.7 mph 17.3 mph N/A   Overcast